OE6PWE-13 Weather Reports


Display with metric or nautical units.
time (UTC)temp
F
wind
direction
speed
MPH
gust
MPH
rain 1hr
in
rain 24hr
in
rain mn
in
humidity
%
barometer
mb
20260906014512 57 0 0.0 0.0 0.00 0.00 0.00 99 1025.0
20260906013012 56 0 0.0 0.0 0.00 0.00 0.00 99 1024.0
20260906011512 56 0 0.0 2.0 0.00 0.00 0.00 99 1024.0
20260906010012 57 0 0.0 0.0 0.00 0.00 0.00 99 1024.0
20260906004512 56 90 0.0 2.0 0.00 0.00 0.00 99 1024.0
20260906003017 56 0 0.0 0.0 0.00 0.00 0.00 99 1024.0
20260906001511 56 0 0.0 0.0 0.00 0.00 0.00 99 1024.0
20260906000012 56 0 0.0 0.0 0.00 0.00 0.00 99 1024.0
20260905234512 57 90 0.0 2.0 0.00 0.00 0.00 99 1024.0
20260905233012 56 0 0.0 0.0 0.00 0.00 0.00 99 1024.0
20260905231512 56 0 0.0 0.0 0.00 0.00 0.00 99 1024.0
20260905230012 57 0 0.0 0.0 0.00 0.00 0.00 99 1024.0
20260905224511 56 0 0.0 0.0 0.00 0.00 0.00 99 1024.0
20260905223012 57 0 0.0 0.0 0.00 0.00 0.00 99 1024.0
20260905221511 58 0 0.0 0.0 0.00 0.00 0.00 99 1024.0
20260905220011 58 0 0.0 0.0 0.00 0.00 0.00 99 1023.0
20260905214511 58 0 0.0 0.0 0.00 0.00 0.00 99 1023.0
20260905213011 58 0 0.0 0.0 0.00 0.00 0.00 99 1023.0
20260905211512 59 0 0.0 1.0 0.00 0.00 0.00 99 1023.0
20260905210012 59 0 0.0 0.0 0.00 0.00 0.00 99 1023.0
20260905204511 60 0 0.0 0.0 0.00 0.00 0.00 99 1023.0
20260905203012 60 0 0.0 0.0 0.00 0.00 0.00 99 1023.0
20260905201512 60 0 0.0 0.0 0.00 0.00 0.00 99 1023.0
20260905200011 61 0 0.0 0.0 0.00 0.00 0.00 99 1023.0
20260905194511 61 0 0.0 0.0 0.00 0.00 0.00 99 1022.0
20260905193011 62 0 0.0 0.0 0.00 0.00 0.00 99 1022.0
20260905191512 62 0 0.0 0.0 0.00 0.00 0.00 99 1022.0
20260905190012 63 0 0.0 0.0 0.00 0.00 0.00 99 1022.0
20260905184512 63 0 0.0 0.0 0.00 0.00 0.00 98 1021.0
20260905183012 64 0 0.0 0.0 0.00 0.00 0.00 98 1021.0
20260905181511 64 0 0.0 0.0 0.00 0.00 0.00 96 1021.0
20260905180012 65 225 0.0 2.0 0.00 0.00 0.00 95 1020.0
20260905174511 67 0 0.0 0.0 0.00 0.00 0.00 93 1020.0
20260905173011 68 0 0.0 0.0 0.00 0.00 0.00 90 1020.0
20260905171512 69 0 0.0 0.0 0.00 0.00 0.00 88 1020.0
20260905170012 70 0 0.0 0.0 0.00 0.00 0.00 86 1020.0
20260905164511 70 203 1.0 3.0 0.00 0.00 0.00 83 1019.0
20260905163012 72 263 2.0 6.0 0.00 0.00 0.00 81 1019.0
20260905161511 73 235 1.0 2.0 0.00 0.00 0.00 78 1019.0
20260905160012 74 228 2.0 4.0 0.00 0.00 0.00 76 1019.0
20260905154512 74 227 1.0 4.0 0.00 0.00 0.00 75 1019.0
20260905153016 73 198 0.0 2.0 0.00 0.00 0.00 74 1019.0
20260905151512 71 180 1.0 4.0 0.00 0.00 0.00 78 1019.0
20260905150011 71 202 3.0 6.0 0.00 0.00 0.00 78 1019.0
20260905144512 70 194 2.0 5.0 0.00 0.00 0.00 80 1019.0
20260905143012 68 243 1.0 3.0 0.00 0.00 0.00 87 1020.0
20260905141512 65 156 1.0 2.0 0.00 0.00 0.00 94 1020.0
20260905140011 64 90 0.0 2.0 0.00 0.00 0.00 97 1020.0
20260905134511 64 191 3.0 5.0 0.00 0.00 0.00 99 1020.0
20260905133012 63 169 1.0 3.0 0.00 0.00 0.00 99 1020.0
20260905131511 64 186 2.0 5.0 0.00 0.00 0.00 99 1020.0
20260905130011 64 127 1.0 2.0 0.00 0.00 0.00 99 1020.0
20260905124512 64 122 0.0 2.0 0.00 0.00 0.00 99 1020.0
20260905123011 64 135 1.0 2.0 0.00 0.00 0.00 99 1020.0
20260905121512 64 122 1.0 2.0 0.00 0.00 0.00 99 1021.0
20260905120012 65 75 0.0 2.0 0.00 0.00 0.00 97 1020.0
20260905114512 71 12 1.0 2.0 0.00 0.00 0.00 83 1020.0
20260905113012 73 270 1.0 4.0 0.00 0.00 0.00 65 1020.0
20260905111512 75 196 2.0 4.0 0.00 0.00 0.00 63 1019.0
20260905110012 74 0 1.0 4.0 0.00 0.00 0.00 61 1019.0
20260905104511 74 0 0.0 2.0 0.00 0.00 0.00 63 1019.0
20260905103011 74 270 0.0 2.0 0.00 0.00 0.00 61 1019.0
20260905101511 73 180 0.0 2.0 0.00 0.00 0.00 62 1019.0
20260905100011 74 260 2.0 5.0 0.00 0.00 0.00 61 1019.0
20260905094512 73 231 1.0 6.0 0.00 0.00 0.00 61 1019.0
20260905093012 71 283 1.0 4.0 0.00 0.00 0.00 68 1019.0
20260905091511 70 213 1.0 4.0 0.00 0.00 0.00 71 1019.0
20260905090012 70 270 1.0 3.0 0.00 0.00 0.00 71 1019.0
20260905084511 71 11 0.0 3.0 0.00 0.00 0.00 73 1019.0
20260905083011 72 90 0.0 2.0 0.00 0.00 0.00 73 1019.0
20260905081511 71 234 1.0 4.0 0.00 0.00 0.00 77 1018.0
20260905080012 72 39 1.0 7.0 0.00 0.00 0.00 80 1017.0
20260905074511 72 333 0.0 2.0 0.00 0.00 0.00 79 1017.0
20260905073011 71 0 1.0 4.0 0.00 0.00 0.00 82 1017.0
20260905071512 68 180 0.0 2.0 0.00 0.00 0.00 91 1016.0
20260905070012 66 0 0.0 0.0 0.00 0.00 0.00 94 1016.0
20260905064511 65 0 0.0 2.0 0.00 0.00 0.00 96 1016.0
20260905063012 64 0 0.0 0.0 0.00 0.00 0.00 99 1016.0
20260905061512 63 0 0.0 2.0 0.00 0.00 0.00 99 1016.0
20260905060012 62 0 0.0 1.0 0.00 0.00 0.00 99 1016.0
20260905054512 61 0 0.0 0.0 0.00 0.00 0.00 99 1016.0
20260905053011 60 0 0.0 0.0 0.00 0.00 0.00 99 1016.0
20260905051512 60 0 0.0 0.0 0.00 0.00 0.00 99 1016.0
20260905050011 60 0 0.0 0.0 0.00 0.00 0.00 99 1015.0
20260905044512 59 0 0.0 0.0 0.00 0.00 0.00 99 1015.0
20260905043012 60 0 0.0 0.0 0.00 0.00 0.00 99 1015.0
20260905041512 60 0 0.0 0.0 0.00 0.00 0.00 99 1015.0
20260905040011 60 0 0.0 0.0 0.00 0.00 0.00 99 1015.0
20260905034512 60 0 0.0 2.0 0.00 0.00 0.00 99 1015.0
20260905033012 60 0 0.0 0.0 0.00 0.00 0.00 99 1015.0
20260905031512 60 0 0.0 0.0 0.00 0.00 0.00 99 1015.0
20260905030011 60 0 0.0 0.0 0.00 0.00 0.00 99 1014.0
20260905024512 60 90 0.0 2.0 0.00 0.00 0.00 99 1014.0
20260905023012 60 0 0.0 2.0 0.00 0.00 0.00 99 1014.0
20260905021512 60 0 0.0 0.0 0.00 0.00 0.00 99 1014.0
20260905020011 60 0 0.0 0.0 0.00 0.00 0.00 99 1014.0